Total_Precipitation_Accumulation
3.43 3.45 3.26 3.28 3.11 3.24 3.42 3.44 3.17 3.26 3.39 3.33 3.13 3.06 2.92 2.55 2.41 2.33 2.47 2.72 2.69 2.64 2.87 2.84 2.77 2.64 2.36 2.05 1.89 1.79 1.71 1.57 1.42 1.22 1.13 1.03 0.94 0.84 0.69 0.59 0.56 0.51 0.51
3.22 3.12 3.18 3.31 3.11 3.10 3.11 3.14 3.19 3.47 3.65 3.72 3.41 3.16 3.06 2.86 2.69 2.67 2.66 2.85 2.83 2.62 2.77 3.13 3.30 3.21 3.03 2.70 2.41 2.22 2.13 1.97 1.69 1.33 1.21 1.14 1.03 0.94 0.86 0.81 0.72 0.61 0.57
3.20 3.13 3.12 2.97 2.93 2.99 3.13 3.16 3.29 3.47 3.35 3.47 3.51 3.34 3.19 2.98 2.90 2.86 2.83 2.78 2.50 2.64 2.91 3.14 3.35 3.40 3.42 3.27 3.12 2.92 2.65 2.28 1.90 1.53 1.26 1.16 1.06 0.93 0.90 0.92 0.93 0.84 0.75
2.90 2.96 2.77 2.69 2.74 2.62 2.74 2.99 3.04 3.12 3.24 3.45 3.46 3.15 3.06 3.06 2.88 2.87 2.76 2.62 2.68 2.41 2.80 3.18 3.30 3.21 3.38 3.66 3.89 3.89 3.34 2.63 2.12 1.79 1.51 1.35 1.23 1.03 0.92 0.89 0.91 0.90 0.78
2.36 2.44 2.45 2.55 2.45 2.42 2.51 2.38 2.85 3.05 3.22 3.32 3.03 2.91 2.74 2.92 2.89 2.67 2.64 2.41 2.58 2.60 2.68 2.80 3.04 2.97 3.22 3.84 4.43 4.58 4.24 3.45 2.68 2.27 2.04 1.86 1.71 1.49 1.22 1.06 0.95 0.88 0.78
2.24 2.27 2.24 2.35 2.24 2.38 2.60 2.74 3.02 3.02 2.94 3.00 2.56 2.59 2.59 2.38 2.40 2.37 2.28 2.32 2.37 2.13 2.31 2.61 2.96 2.60 2.92 3.50 4.00 4.38 4.61 4.35 3.61 3.01 2.69 2.61 2.50 2.11 1.58 1.30 1.14 1.03 0.91
2.17 2.39 2.18 2.39 2.22 2.32 2.45 2.54 2.68 2.74 2.65 2.68 2.87 2.83 2.42 2.08 1.99 1.90 1.95 2.18 2.07 2.05 2.27 2.69 2.91 2.86 2.57 2.61 2.85 3.43 4.20 4.50 4.31 3.75 3.27 2.98 2.88 2.55 1.93 1.58 1.36 1.26 1.18
1.94 1.93 2.20 2.21 2.22 2.42 2.48 2.46 2.60 2.57 2.39 2.45 2.74 2.99 2.66 2.42 1.98 1.47 1.55 1.55 1.64 1.94 2.09 2.17 2.44 2.83 2.67 2.77 2.32 2.47 3.38 4.10 4.57 4.48 3.98 3.38 3.01 2.69 2.32 2.00 1.69 1.50 1.39
1.67 1.79 1.90 2.03 2.26 2.20 2.38 2.44 2.33 2.42 2.46 2.43 2.46 2.84 2.81 2.63 2.22 1.64 1.38 1.40 1.55 1.78 1.85 2.03 2.12 2.30 2.32 2.70 2.89 2.57 2.65 3.03 3.95 4.67 4.70 4.04 3.26 2.72 2.48 2.35 2.22 1.97 1.72
1.60 1.59 1.70 1.87 2.07 1.99 2.26 2.02 2.15 2.42 2.50 2.36 2.29 2.21 2.26 2.38 2.48 2.14 1.67 1.40 1.50 1.58 1.66 1.67 1.87 2.16 2.32 2.50 2.65 2.46 2.12 2.18 2.90 3.80 4.41 4.36 3.78 3.19 2.84 2.73 2.90 2.81 2.41
1.79 1.60 1.70 1.86 1.94 1.87 1.94 1.96 2.33 2.33 2.27 2.23 2.24 2.26 2.22 2.19 2.10 2.17 1.99 1.67 1.50 1.28 1.27 1.39 1.69 1.93 2.07 2.31 2.61 2.35 2.08 1.91 2.05 2.57 3.19 3.64 3.79 3.54 3.13 2.95 3.25 3.50 3.32
1.93 1.76 1.77 1.86 1.79 1.76 1.81 1.89 2.15 2.18 2.26 2.35 2.36 2.21 2.26 2.15 2.04 2.19 1.94 1.67 1.52 1.09 1.06 1.14 1.31 1.50 1.72 1.96 2.09 2.13 2.08 2.08 2.03 2.12 2.28 2.59 2.95 3.06 3.04 3.17 3.50 3.77 3.93
1.61 1.66 1.73 1.87 1.71 1.65 1.73 1.97 2.09 2.11 2.21 2.24 2.17 2.06 2.01 1.81 1.89 1.98 1.86 1.56 1.47 1.14 1.19 1.07 1.12 1.37 1.53 1.90 2.03 2.05 1.91 1.98 1.82 1.77 1.80 1.84 1.97 2.26 2.59 2.88 3.27 3.63 4.00
1.52 1.61 1.66 1.66 1.62 1.63 1.64 2.01 1.94 2.00 2.09 2.01 1.86 2.15 2.02 1.69 1.84 1.92 1.99 2.13 1.89 1.61 1.55 1.27 1.22 1.52 1.85 1.98 2.23 2.25 1.79 1.81 1.65 1.53 1.47 1.53 1.58 1.70 1.84 2.05 2.35 2.60 2.90
1.57 1.66 1.72 1.67 1.69 1.83 1.99 2.17 2.02 2.04 2.12 1.93 1.95 2.21 2.05 1.85 1.84 1.84 2.03 2.32 2.43 2.06 1.75 1.64 1.59 1.60 1.80 1.94 2.20 2.04 1.85 1.96 1.78 1.59 1.48 1.44 1.45 1.52 1.57 1.61 1.67 1.78 1.92
1.61 1.73 1.87 1.84 1.89 1.94 2.08 2.18 1.99 2.07 2.07 1.96 2.03 2.24 2.23 2.03 2.02 1.94 2.01 2.20 2.45 2.38 1.99 1.62 1.65 1.62 1.73 1.61 1.90 1.76 1.81 1.95 1.76 1.63 1.57 1.52 1.49 1.50 1.51 1.55 1.58 1.57 1.57
1.70 1.73 1.84 1.89 1.86 1.90 1.99 2.08 1.92 1.99 1.95 1.97 1.97 2.06 2.12 2.29 2.27 2.18 2.30 2.37 2.44 2.54 2.24 1.77 1.78 1.92 1.93 1.77 1.77 1.72 1.72 1.72 1.63 1.69 1.60 1.56 1.50 1.44 1.34 1.29 1.35 1.40 1.40
1.57 1.63 1.69 1.68 1.61 1.71 1.87 1.90 1.82 1.91 1.96 1.93 2.04 2.22 2.15 2.27 2.34 2.37 2.55 2.44 2.50 2.78 2.65 2.26 2.16 2.27 2.19 2.05 2.01 1.91 1.66 1.56 1.53 1.72 1.61 1.53 1.44 1.36 1.30 1.23 1.21 1.24 1.25
1.63 1.61 1.59 1.51 1.50 1.57 1.66 1.68 1.83 1.96 1.99 2.03 2.17 2.28 2.33 2.55 2.43 2.50 2.54 2.46 2.51 2.75 2.94 2.65 2.39 2.50 2.44 2.23 2.23 1.97 1.80 1.85 1.59 1.64 1.66 1.56 1.44 1.36 1.28 1.25 1.23 1.19 1.13
1.73 1.75 1.73 1.74 1.75 1.72 1.73 1.82 1.94 2.03 2.04 2.10 2.27 2.33 2.38 2.49 2.57 2.74 2.72 2.77 2.93 3.11 3.25 3.05 2.83 2.89 2.89 2.78 2.60 2.21 2.11 2.02 1.86 1.68 1.74 1.62 1.54 1.45 1.35 1.24 1.18 1.17 1.15
1.96 2.11 2.12 2.13 2.22 2.14 1.93 2.08 2.17 2.13 2.27 2.22 2.29 2.29 2.27 2.43 2.56 2.72 2.58 2.77 3.12 3.29 3.42 3.44 3.32 3.47 3.38 3.28 2.89 2.51 2.39 2.26 2.07 1.80 1.74 1.61 1.55 1.44 1.41 1.40 1.33 1.28 1.24
2.36 2.49 2.45 2.42 2.36 2.06 2.20 2.31 2.32 2.38 2.42 2.38 2.38 2.40 2.35 2.35 2.30 2.35 2.40 2.51 2.74 2.95 3.18 3.42 3.47 3.53 3.53 3.44 3.23 2.91 2.54 2.28 2.07 1.89 1.94 1.79 1.64 1.56 1.43 1.34 1.46 1.40 1.31
2.42 2.49 2.49 2.51 2.36 2.33 2.40 2.21 2.23 2.23 2.34 2.43 2.48 2.49 2.26 2.10 2.18 2.06 2.22 2.31 2.27 2.32 2.45 2.75 2.93 2.94 3.21 3.37 3.31 2.86 2.54 2.24 2.00 1.92 2.02 1.85 1.69 1.59 1.46 1.42 1.52 1.37 1.29
2.74 2.73 2.66 2.63 2.57 2.45 2.39 2.17 2.24 2.12 2.16 2.22 2.25 2.26 2.23 2.13 2.11 2.22 2.22 2.10 1.89 1.84 1.95 1.94 2.00 2.24 2.59 2.99 3.13 2.95 2.89 2.57 2.22 1.99 1.97 1.86 1.64 1.54 1.43 1.40 1.53 1.42 1.29
2.95 2.95 2.90 2.86 2.81 2.79 2.74 2.42 2.32 2.13 2.17 2.15 2.18 2.19 2.15 2.00 2.16 2.11 2.02 1.97 1.83 1.70 1.71 1.76 1.80 2.00 2.28 2.57 2.82 2.86 2.77 2.66 2.33 2.02 1.92 1.86 1.66 1.63 1.55 1.42 1.39 1.44 1.32
2.98 2.97 2.87 2.89 2.84 2.82 2.93 2.63 2.41 2.14 2.15 2.18 2.27 2.27 2.26 2.08 2.14 2.08 1.99 1.99 1.85 1.76 1.78 1.74 1.76 1.79 1.83 2.14 2.48 2.48 2.51 2.56 2.37 2.12 1.82 1.85 1.73 1.76 1.70 1.38 1.18 1.15 1.17